Date,TemperatureHighF,TemperatureAvgF,TemperatureLowF,DewpointHighF,DewpointAvgF,DewpointLowF,HumidityHigh,HumidityAvg,HumidityLow,PressureMaxIn,PressureMinIn,WindSpeedMaxMPH,WindSpeedAvgMPH,GustSpeedMaxMPH,PrecipitationSumIn
2013-3-1,53.8,39.5,27.3,31.6,27.4,23.0,88,64,38,29.92,29.81,13,1,13,0.00
2013-3-2,45.2,39.7,32.9,35.3,31.8,23.8,90,74,55,29.91,29.81,15,0,15,0.01
2013-3-3,47.9,35.2,24.4,24.1,19.5,14.8,85,56,28,30.00,29.86,12,1,12,0.00
2013-3-4,53.6,37.6,22.2,28.9,18.6,13.7,80,51,22,30.14,29.99,10,0,10,0.00
2013-3-5,61.0,47.9,38.0,54.5,39.8,27.5,99,75,49,30.02,29.58,30,2,30,0.41
2013-3-6,50.4,39.8,31.6,28.9,24.8,19.7,76,56,38,30.08,29.68,21,5,21,0.00
2013-3-7,58.4,40.7,26.3,32.5,27.7,23.4,91,63,33,30.22,30.08,7,0,8,0.00
2013-3-8,63.9,44.4,28.5,29.6,23.3,16.9,82,49,18,30.29,30.14,7,0,7,0.00
2013-3-9,64.2,47.4,32.7,34.3,27.1,22.3,73,47,25,30.31,30.17,7,0,7,0.00
2013-3-10,67.1,52.6,39.6,39.3,34.8,29.8,83,53,30,30.24,30.08,12,1,12,0.00
2013-3-11,66.6,54.4,44.5,56.0,47.1,37.5,100,78,57,30.10,29.76,18,3,18,0.60
2013-3-12,68.3,57.5,47.3,57.2,46.0,21.6,100,72,24,29.97,29.67,10,2,11,0.16
2013-3-13,58.0,46.0,35.8,32.8,25.7,18.9,81,48,23,30.13,29.97,21,4,21,0.00
2013-3-14,53.2,40.0,26.4,24.4,19.6,14.5,77,47,25,30.28,30.12,11,1,11,0.00
2013-3-15,71.5,51.2,30.0,41.6,30.7,17.3,77,48,29,30.17,29.88,18,2,18,0.00
2013-3-16,77.2,65.3,54.8,47.5,42.1,37.4,63,44,27,29.88,29.72,21,4,21,0.00
2013-3-17,74.2,64.3,54.5,51.8,46.6,39.0,72,53,38,29.95,29.81,17,2,17,0.00
2013-3-18,56.0,44.1,41.5,45.2,41.3,39.5,100,91,67,30.03,29.81,16,2,16,0.42
2013-3-19,68.8,53.5,42.8,50.2,34.3,18.6,100,60,18,29.99,29.82,16,3,16,0.01
2013-3-20,58.3,47.7,37.9,30.5,19.8,13.3,65,35,19,30.07,29.78,18,1,18,0.00
2013-3-21,53.6,41.7,31.8,30.3,12.5,1.8,60,32,17,29.92,29.77,19,4,19,0.00
2013-3-22,48.8,38.4,27.2,29.9,20.3,12.7,79,50,28,30.06,29.92,9,1,9,0.00
2013-3-23,50.4,44.8,39.9,46.8,40.5,28.5,99,86,62,29.99,29.82,6,0,6,0.23
2013-3-24,46.1,44.2,42.2,44.6,42.4,39.7,100,94,80,29.84,29.51,14,3,14,1.08
2013-3-25,45.2,40.6,34.4,42.6,25.6,20.0,99,56,38,29.93,29.53,24,7,26,0.00
2013-3-26,51.4,39.0,29.0,25.8,22.9,19.4,78,54,32,30.17,29.91,13,2,13,0.00
2013-3-27,55.7,40.2,26.0,28.0,23.2,18.3,87,55,25,30.26,30.12,11,1,11,0.00
2013-3-28,61.8,44.1,28.1,26.7,23.0,17.2,82,49,18,30.29,30.12,12,1,12,0.00
2013-3-29,59.5,46.7,30.4,39.7,27.5,19.7,78,50,24,30.31,30.15,9,1,9,0.00
2013-3-30,69.3,55.5,43.5,48.6,41.0,36.9,87,61,32,30.16,29.97,12,1,12,0.02
2013-3-31,69.6,58.5,51.3,57.3,53.8,48.4,100,86,53,29.99,29.78,18,2,18,0.61